Regional Weather Roundup
Issued by NWS New Orleans/Baton Rouge, LA

Home | Current Version | Previous Version | Graphics & Text | Print | Product List | Glossary On
Versions: 1 2 3 4 5 6 7 8 9 10 11 12 13 14 15 16 17 18 19 20 21 22 23 24 25 26 27 28 29 30 31 32 33 34 35 36 37 38 39 40 41 42 43 44 45 46 47 48 49 50
128
ASUS44 KLIX 230801
RWRLIX
NEW ORLEANS REGIONAL WEATHER ROUNDUP
NATIONAL WEATHER SERVICE NEW ORLEANS LA
300 AM CDT WED JUL 23 2014

NOTE: "FAIR" INDICATES FEW OR NO CLOUDS BELOW 12,000 FEET WITH NO
      SIGNIFICANT WEATHER AND/OR OBSTRUCTIONS TO VISIBILITY.
      SKY/WX - SKY CONDITION AND SIGNIFICANT WEATHER.
      TMP - AIR TEMPERATURE.     DP    - DEWPOINT TEMPERATURE.
      RH  - RELATIVE HUMIDITY.   PRES  - PRESSURE.
      HI  - HEAT INDEX.          WCI   - WIND CHILL INDEX.

*  THESE STATIONS ARE NOT NWS OR FAA STATIONS AND ARE NOT UNDER
   NWS QUALITY CONTROL.

LAZ038-040-048-061>063-065>067-069-230900-
SOUTHEAST LOUISIANA

CITY           SKY/WX    TMP DP  RH WIND       PRES   REMARKS
N.O. AUDUBON   NOT AVBL
N.O. INTL ARPT CLOUDY    78  72  81 E5        30.01F
N.O. LAKEFRONT PTCLDY    79  73  82 E10       30.02S
N.O. DOWNTOWN*   N/A     79  70  73 N5        30.01F
SLIDELL        PTCLDY    72  68  87 CALM      30.01F
BATON ROUGE    CLEAR     72  70  93 CALM      30.02S
BOOTHVILLE     CLOUDY    78  75  90 SE3       30.01S
BELLE CHASSE   MOCLDY    76  72  87 NE3       30.00F
BOGALUSA*        N/A     70  67  90 CALM      30.03F
GALLIANO*      NOT AVBL
NEW ROADS*       N/A     72  71  95 E3        30.02S
GONZALES*        N/A     74  74 100 CALM      30.01S
HAMMOND*       CLEAR     72  68  88 CALM      30.03S
HOUMA*         CLOUDY    76  72  87 CALM      30.00F
PORT FOURCHON* CLOUDY    77  73  88 N5        30.02F

$$

MSZ070-080>082-230900-
SOUTHERN MISSISSIPPI

CITY           SKY/WX    TMP DP  RH WIND       PRES   REMARKS
MCCOMB         PTCLDY    69  67  93 CALM      30.04S
GULFPORT       CLEAR     74  69  85 CALM      30.01F
BILOXI         CLEAR     71  70  95 NE2       30.01F
PASCAGOULA     CLEAR     71  70  96 N3        30.02F

$$

COASTAL OBSERVATIONS
LAKE AND NEARSHORE STATIONS

STATION/POSITION TIME  TEMP    WIND        PRES    WAVE
                       AIR SEA DIR/SP/G            HT/PER
                 (UTC) (F)     (DEG/KT/KT) (MB)    (FT/S)
PASCAGOULA       0700   76      30/  3/  4 1016.0
WAVELAND YACHT   0700   73      50/  6/  8 1015.7
GRAND ISLE       0700   80 84  290/  9/ 12 1016.6
SOUTHWEST PASS   0700   81 85  200/  3/  5 1016.4
NEW CANAL        0700   79 82   60/ 10/ 12 1016.8
SHELL BEACH      0700   81 80   80/  4/  5 1016.2

OFFSHORE STATIONS

STATION/POSITION TIME  TEMP    WIND        PRES    WAVE
                       AIR SEA DIR/SP/G            HT/PER
                 (UTC) (F)     (DEG/KT/KT) (MB)    (FT/S)
64 S DAUPHIN ISL 0717   82 83  140/  6/  8 1016.5

$$




USA.gov is the U.S. government's official web portal to all federal, state and local government web resources and services.